Printer-friendly version
Follow the MPC on Twitter Follow the MPC on Facebook The MPC blog
Minor Planet Center

MPEC 2009-B33 : 2009 BO5

The following Minor Planet Electronic Circular may be linked-to from your own Web pages, but must not otherwise be redistributed electronically.

A form allowing access to any MPEC is at the bottom of this page.


Read MPEC 2009-B32 Read MPEC 2009-B34


M.P.E.C. 2009-B33                                Issued 2009 Jan. 21, 17:04 UT

     The Minor Planet Electronic Circulars contain information on unusual
         minor planets and routine data on comets.  They are published
   on behalf of Commission 20 of the International Astronomical Union by the
          Minor Planet Center, Smithsonian Astrophysical Observatory,
                          Cambridge, MA 02138, U.S.A.

             Prepared using the Tamkin Foundation Computer Network

                              MPC@CFA.HARVARD.EDU
          URL http://www.cfa.harvard.edu/iau/mpc.html  ISSN 1523-6714

                                   2009 BO5

Observations:
     K09B05O* C2009 01 20.37574 09 15 41.76 +28 59 23.7          19.5 V EB033703
     K09B05O  C2009 01 20.38219 09 15 48.49 +28 58 23.3          20.0 V EB033703
     K09B05O  C2009 01 20.38875 09 15 55.40 +28 57 20.9          19.6 V EB033703
     K09B05O  C2009 01 20.39520 09 16 02.31 +28 56 21.1          19.6 V EB033703
     K09B05O  C2009 01 20.42882 09 16 38.10 +28 50 55.5          19.8 V EB033703
     K09B05O  C2009 01 20.42947 09 16 38.71 +28 50 50.1          20.1 V EB033703
     K09B05O  C2009 01 20.43010 09 16 39.43 +28 50 44.2          19.5 V EB033703
     K09B05O  C2009 01 20.43083 09 16 40.26 +28 50 36.5          19.7 V EB033703
     K09B05O  C2009 01 20.43131 09 16 39.87 +28 50 18.4          19.7 R EB033H01
     K09B05O  C2009 01 20.43758 09 16 46.65 +28 49 16.8          20.2 R EB033H01
     K09B05O  C2009 01 20.44332 09 16 52.87 +28 48 19.8          20.1 R EB033H01
     K09B05O  C2009 01 20.45106 09 17 01.29 +28 47 03.0          19.7 R EB033H01
     K09B05O  C2009 01 20.49014 09 17 44.97 +28 40 42.0          20.0 V EB033703
     K09B05O  C2009 01 20.49525 09 17 50.70 +28 39 50.2          19.6 V EB033703
     K09B05O  C2009 01 20.99477 09 28 40.68 +27 12 22.1                 EB033J95
     K09B05O  C2009 01 20.99792 09 28 44.52 +27 11 47.9                 EB033J95
     K09B05O  C2009 01 21.00108 09 28 48.39 +27 11 13.5          19.5 R EB033J95
     K09B05O  C2009 01 21.21532 09 33 46.04 +26 31 07.6          19.5 V EB033703
     K09B05O  C2009 01 21.21594 09 33 46.80 +26 31 00.0          19.5 V EB033703
     K09B05O  C2009 01 21.21655 09 33 47.55 +26 30 54.6          19.7 V EB033703
     K09B05O  C2009 01 21.31470 09 35 50.11 +26 11 52.5          18.9 R EB033H01
     K09B05O  C2009 01 21.31826509 35 47.37 +26 10 40.7          19.8 V EB033H55
     K09B05O  C2009 01 21.32104509 35 50.84 +26 10 06.9          20.2 V EB033H55
     K09B05O  C2009 01 21.32174 09 35 58.92 +26 10 27.9          19.0 R EB033H01
     K09B05O  C2009 01 21.32383309 35 54.32 +26 09 32.3          20.5 V EB033H55
     K09B05O  C2009 01 21.32662909 35 57.74 +26 08 57.9          19.8 V EB033H55
     K09B05O  C2009 01 21.33180 09 36 11.46 +26 08 26.4          19.2 R EB033H01
     K09B05O  C2009 01 21.33764 09 36 18.75 +26 07 15.4          19.3 R EB033H01
     K09B05O  C2009 01 21.52517 09 40 19.77 +25 26 43.1          19.0 R EB033H01
     K09B05O  C2009 01 21.53010 09 40 26.43 +25 25 35.6          18.9 R EB033H01

Observer details:
703 Catalina Sky Survey.  Observer A. Boattini.  Measurers E. C. Beshore,
    A. Boattini, G. J. Garradd, A. R. Gibbs, A. D. Grauer, R. E. Hill,
    R. A. Kowalski, S. M. Larson, R. H. McNaught.  0.68-m Schmidt + CCD.
H01 Magdalena Ridge Observatory, Socorro.  Observers W. H. Ryan, E. V. Ryan.
    Measurer W. H. Ryan.  2.4-m f/8.9 reflector + CCD.
H55 Astronomical Research Observatory, Charleston.  Observer R. Holmes.
    Measurer H. Devore.  0.61-m f/4.0 astrograph + CCD.
J95 Great Shefford.  Observer P. Birtwhistle.  0.40-m f/6.0 Schmidt-Cassegrain
    + CCD.

Orbital elements:
2009 BO5                                                 Earth MOID = 0.0045 AU
Epoch 2008 Nov. 30.0 TT = JDT 2454800.5                 MPC
M 311.94993              (2000.0)            P               Q
n   0.57649890     Peri.  211.76896     -0.92619118     -0.37389160
a   1.4297839      Node   306.19784     +0.35735571     -0.82921171
e   0.3292988      Incl.    3.46220     +0.12027799     -0.41546722
P   1.71           H   26.8           G   0.15           U   7
Residuals in seconds of arc
090120 703  0.5+  0.0     090120 H01  0.6+  0.8-    090121 H01  0.5+  0.0
090120 703  0.4-  0.1+    090120 H01  0.4+  0.6-    090121 H55  0.1+  0.2-
090120 703  0.6-  0.3-    090120 703  1.2-  1.1-    090121 H55  0.1-  0.1+
090120 703  0.5+  1.1+    090120 703  0.8-  0.7-    090121 H01  0.8+  0.0
090120 703  0.1-  0.2-    090120 J95  0.2+  0.0     090121 H55  0.3-  0.1-
090120 703  1.2-  0.8+    090120 J95  0.3+  0.1+    090121 H55  1.5-  0.0
090120 703  0.7-  1.0+    090121 J95  0.5+  0.2+    090121 H01  0.5+  0.1+
090120 703  0.1-  0.5+    090121 703  0.9-  0.9+    090121 H01  0.5+  0.0
090120 H01  0.8+  0.7-    090121 703  1.3-  0.2+    090121 H01  0.0   1.1-
090120 H01  0.7+  0.6-    090121 703  1.7-  1.6+    090121 H01  0.1-  1.0-

Ephemeris:
2009 BO5                 a,e,i = 1.43, 0.33, 3                   q = 0.9590
Date    TT    R. A. (2000) Decl.     Delta      r     Elong.  Phase     V
2009 01 19    08 51.49   +31 55.4    0.0317   1.014   164.3    15.2    20.2
2009 01 20    09 08.54   +29 54.8    0.0285   1.011   163.3    16.3    20.0
2009 01 21    09 28.66   +27 14.0    0.0256   1.008   161.2    18.4    19.8
2009 01 22    09 52.34   +23 38.8    0.0229   1.005   157.5    22.0    19.7
2009 01 23    10 19.96   +18 53.2    0.0205   1.002   152.0    27.5    19.6
2009 01 24    10 51.57   +12 44.7    0.0187   1.000   144.3    35.1    19.6
2009 01 25    11 26.65   +05 16.5    0.0175   0.997   134.7    44.5    19.7
2009 01 26    12 03.96   -03 00.8    0.0171   0.994   123.9    55.3    20.0
2009 01 27    12 41.69   -11 11.8    0.0176   0.992   112.9    66.1    20.3
2009 01 28    13 17.90   -18 23.7    0.0187   0.989   103.0    76.0    20.8
2009 01 29    13 51.08   -24 10.2    0.0206   0.987    94.6    84.2    21.3
2009 01 30    14 20.44   -28 32.6    0.0228   0.984    87.9    90.8    21.8
2009 01 31    14 45.85   -31 45.8    0.0255   0.982    82.7    95.9    22.2
2009 02 01    15 07.58   -34 06.8    0.0283   0.980    78.6    99.7    22.6
2009 02 02    15 26.09   -35 50.3    0.0314   0.978    75.5   102.7    23.0
2009 02 03    15 41.89   -37 06.8    0.0346   0.976    73.2   104.9    23.3
2009 02 04    15 55.45   -38 04.3    0.0378   0.974    71.3   106.6    23.6
2009 02 05    16 07.16   -38 47.9    0.0412   0.973    69.9   107.8    23.9
2009 02 06    16 17.36   -39 21.4    0.0446   0.971    68.9   108.7    24.1
2009 02 07    16 26.31   -39 47.5    0.0480   0.969    68.1   109.3    24.3
2009 02 08    16 34.25   -40 07.9    0.0515   0.968    67.5   109.6    24.4

Timothy B. Spahr             (C) Copyright 2009 MPC           M.P.E.C. 2009-B33

Read MPEC 2009-B32 Read MPEC 2009-B34


MPEC number:

Enter an MPEC number in one of the following forms:

  • 1997-B01 (the full form)
  • J97B01 (the packed version of the full form)
  • B01 (the abbreviated form)

Valid HTML 4.01!